Flag for U.S.A. Weather past 2 weeks in Frankfort, Kentucky, U.S.A.

Now
61 °F

Sunny.


Feels Like: 61 °F
Forecast: 50 / 75 °F
Wind: 9 mph from East

Location: Capital City Airport

Current Time: Sep 19, 2014 at 10:50:26 AM

Latest Report: Sep 19, 2014 at 9:53 AM


Visibility: 10 mi

Pressure: 30.14 "Hg

Humidity: 67%

Dew point: 50 °F

Location of FrankfortLocation

Historic Weather in Frankfort — Graph

°F

Frankfort temperature yesterday

Maximum temperature yesterday: 73 °F (at 3:53 PM)
Minimum temperature yesterday: 53 °F (at 4:53 AM)
Average temperature yesterday: 61 °F

Past Weeks' High & Low Weather Summary

 TemperatureHumidityPressure
High89 °F (Sep 5, 3:53 PM)100% (Sep 17, 3:58 AM)30.29 "Hg (Sep 17, 3:58 AM)
Low45 °F (Sep 14, 5:53 AM)32% (Sep 7, 2:53 PM)29.81 "Hg (Sep 10, 7:53 PM)
Average66 °F77%30.08 "Hg
* Reported Sep 4 8:53 AM — Sep 19 8:53 AM, Frankfort, Weather by CustomWeather, © 2014

Note: Actual official high and low records may vary slightly from our data, if they occured in-between our weather recording intervals... More about our weather records

Advertising

Frankfort weather history for previous 24 hours

 ConditionsComfort  
Time TempWeatherWind HumidityBarometerVisibility
8:53 AM
Sep 19
57 °FSunny.7 mph72%30.14 "Hg10 mi
7:53 AM53 °FClear.3 mph80%30.13 "Hg10 mi
6:53 AM54 °FClear.3 mph77%30.11 "Hg10 mi
5:53 AM54 °FClear.3 mph80%30.11 "Hg10 mi
4:53 AM56 °FClear.5 mph75%30.10 "Hg10 mi
3:53 AM56 °FClear.5 mph77%30.09 "Hg10 mi
2:53 AM57 °FClear.6 mph78%30.10 "Hg10 mi
1:53 AM57 °FClear.3 mph78%30.10 "Hg10 mi
12:53 AM55 °FClear.No wind87%30.10 "Hg10 mi
11:53 PM
Sep 18
54 °FClear.No wind90%30.09 "Hg10 mi
10:53 PM54 °FClear.No wind90%30.08 "Hg10 mi
9:53 PM57 °FClear.3 mph83%30.07 "Hg10 mi
8:53 PM60 °FClear.No wind75%30.05 "Hg10 mi
7:53 PM66 °FSunny.3 mph56%30.03 "Hg10 mi
6:53 PM70 °FSunny.6 mph47%30.03 "Hg10 mi
5:53 PM73 °FSunny.6 mph43%30.02 "Hg10 mi
4:53 PM73 °FSunny.8 mph44%30.02 "Hg10 mi
3:53 PM73 °FPassing clouds.8 mph44%30.03 "Hg10 mi
2:53 PM71 °FPassing clouds.7 mph47%30.05 "Hg10 mi
1:53 PM71 °FSunny.8 mph53%30.05 "Hg10 mi
12:53 PM69 °FSunny.12 mph53%30.05 "Hg10 mi
11:53 AM67 °FSunny.8 mph57%30.08 "Hg10 mi
10:53 AM64 °FSunny.9 mph63%30.08 "Hg10 mi
Weather by CustomWeather, © 2014

See weather overviewHow to use our weather pages